Hourly Data Report for September 22, 2017

All times are specified in Local Standard Time (LST). Add 1 hour to adjust for Daylight Saving Time where and when it is observed.

CLYDE RIVER A
NUNAVUT

70°29'09.000" N
68°31'01.000" W
26.50 m
2400804
71090
YCY

Download Data

Hourly Data (September 2017)
Hourly Data Report for September 22, 2017
Temp Definition
°C
Dew Point Temp Definition
°C
Rel Hum Definition
%
Wind Dir Definition
10's deg

Wind Spd Definition
km/h
Visibility Definition
km
Stn Press Definition
kPa
Hmdx Definition


Wind Chill Definition


Weather Definition


TIME
00:00 Legend Double Dagger -0.8 -3.1 85 33 30 16.1 101.18   -8 LegendNANA
01:00 Legend Double Dagger -1.2 -3.4 85 31 28 16.1 101.16   -8 LegendNANA
02:00 Legend Double Dagger -1.3 -3.7 84 29 30 16.1 101.17   -8 LegendNANA
03:00 Legend Double Dagger -1.5 -4.2 82 32 37 16.1 101.07   -9 LegendNANA
04:00 Legend Double Dagger -3.3 -5.8 83 30 24 16.1 101.11   -10 LegendNANA
05:00 Legend Double Dagger -3.9 -6.5 82 30 18 16.1 101.13   -10 LegendNANA
06:00 Legend Double Dagger -3.2 -6.3 79 29 26 16.1 101.12   -10 LegendNANA
07:00 Legend Double Dagger -2.1 -5.5 78 29 28 16.1 101.09   -9 LegendNANA
08:00 Legend Double Dagger -1.4 -4.6 79 29 30 16.1 101.07   -8 LegendNANA
09:00 Legend Double Dagger -0.9 -4.8 75 30 28 16.1 101.04   -7 LegendNANA
10:00 Legend Double Dagger -1.3 -4.8 77 29 21 16.1 101.02   -7 LegendNANA
11:00 Legend Double Dagger -0.4 -4.5 74 29 22 16.1 100.98   -6 LegendNANA
12:00 Legend Double Dagger -0.1 -4.4 73 29 21 16.1 100.97   -6 LegendNANA
13:00 Legend Double Dagger 0.3 -3.6 75 31 28 16.1 100.98     LegendNANA
14:00 Legend Double Dagger 0.1 -4.0 74 30 21 16.1 100.96     LegendNANA
15:00 Legend Double Dagger 0.6 -3.3 75 32 28 16.1 100.94     LegendNANA
16:00 Legend Double Dagger 0.3 -2.9 79 31 18 16.1 100.93     LegendNANA
17:00 Legend Double Dagger -1.5 -4.4 81 30 13 16.1 100.93   -6 LegendNANA
18:00 Legend Double Dagger -1.8 -5.0 79 30 17 16.1 100.92   -7 LegendNANA
19:00 Legend Double Dagger -2.5 -5.2 82 29 15 16.1 100.91   -7 LegendNANA
20:00 Legend Double Dagger -2.1 -4.7 82 29 17 16.1 100.87   -7 LegendNANA
21:00 Legend Double Dagger -1.7 -4.5 81 29 17 16.1 100.83   -7 LegendNANA
22:00 Legend Double Dagger -0.1 -2.8 82 32 22 16.1 100.78   -6 LegendNANA
23:00 Legend Double Dagger -0.3 -2.6 85 30 24 16.1 100.79   -6 LegendNANA

Notes on Data Quality.

Legend

  • E = Estimated
  • M = Missing
  • NA = Not Available
  • ‡ = Partner data that is not subject to review by the National Climate Archives
Date modified: